Погода в Поргере

Папуа-Новая Гвинея     5°28′00″S   143°08′49″E
темп.,
°C
ветер,
м/с
пор.,
м/с
влажн.,
%
обл.,
%
осадки,
мм/ч
давл.,
гПа
погр.,
м
10 августа, ср
ср1001:00+9всв019899 0.0 101736
04:00+8юв119994 0.0 101721
07:00+7ююв119811 0.0 101823
10:00+17ссв125263 0.0 1015968
13:00+16ссз226599 0.3 1012973
16:00+12зсз0096100 2.2 101350
19:00+11ююв0099100 1.8 101620
22:00+11в019972 2.7 101854
11 августа, чт
чт1101:00+9в0110073 0.4 101735
04:00+8юв119844 0.4 101730
07:00+9юв1197100 0.0 101829
10:00+15с117370 0.1 1016827
13:00+16ссз227191 0.8 10121004
16:00+13с129888 2.7 1013227
19:00+11юз009940 3.2 101526
22:00+11ююз009992 4.3 101849
12 августа, пт
пт1201:00+11з009978 0.7 101633
04:00+10ююз0010062 0.9 101652
07:00+10юз009754 0.0 101719
10:00+15сз017950 0.3 1016660
13:00+14зсз1291100 2.1 1013472
16:00+12зсз1298100 5.3 1012250
19:00+11юз1299100 13.3 1015121
22:00+10вюв01100100 28.7 101834
13 августа, сб
сб1301:00+10сз00100100 0.8 101743
04:00+10в0199100 3.1 101654
07:00+10ююв1199100 1.7 101850
10:00+11юв1298100 3.1 1018190
13:00+11юв1197100 2.8 1017231
16:00+12ссв0196100 3.6 1015163
19:00+10юв0099100 0.6 101722
22:00+9ю119993 0.8 101919
14 августа, вс
вс1401:00+9ююв119998 0.2 101823
04:00+9ююв1199100 0.4 101727
07:00+8ююв119856 0.1 101822
10:00+15ссв117456 0.3 1016928
13:00+14сз129095 1.6 1014555
16:00+12ссз1199100 4.1 1014150
19:00+11ссз0110095 4.4 1016105
22:00+11с1110082 5.1 101865